User: anonymous   Login
Location: Black Swamp Observatory
(41.3920°N, 84.1250°W)
Time: 22:55:02
(UTC-05:00)
Language:

Oscar 19 - Orbit

View from above orbital plane
View from above orbital plane
View from above satellite
View from above satellite

Ground track
Ground track

The orbit data is extracted from the following two-line orbital elements,

1 20442U 90005G   24057.82444771  .00000309  00000-0  12858-3 0  9990
2 20442  98.8753  45.2127 0012247 147.7250 212.4685 14.33447260781881
Epoch (UTC): 26 February 2024 19:47:12
Eccentricity: 0.0012247
inclination: 98.8753°
perigee height: 771 km
apogee height: 789 km
right ascension of ascending node: 45.2127°
argument of perigee: 147.7250°
revolutions per day: 14.33447260
mean anomaly at epoch: 212.4685°
orbit number at epoch: 78188

The dashed part of the orbit path shows where the satellite is in the earth's shadow,  

DLR